This demonstration page uses our WeatherBlox Daily Observations layout. Learn more.

Left ArrowRight Arrow

Hourly Observations for March 12, 2019

Temp ( °F °C ) Dew Point ( °F °C ) Humidity (%) Winds ( mph kmh ) Pressure ( in mb ) Visibility ( mi km ) Precip ( " mm )
12:57 am 00:57 Cloudy 37 2.8 32 0 82 82 SSE 10 17 30.20 1023 10 16 0.00 0.00
1:57 am 01:57 Cloudy 37 2.8 31 -0.6 79 79 S 9 15 30.18 1022 10 16 0.00 0.00
2:57 am 02:57 Cloudy 37 2.8 32 0 82 82 S 12 19 30.15 1021 10 16 0.00 0.00
3:57 am 03:57 Cloudy 37 2.8 32 0 82 82 S 12 19 30.13 1020 10 16 0.00 0.00
4:24 am 04:24 Cloudy 37 3 32 0 81 81 SSE 10 17 30.13 1020 10 16 0.00 0.00
4:57 am 04:57 Cloudy 37 2.8 33 0.6 86 86 SSE 10 17 30.08 1019 10 16 0.00 0.00
5:18 am 05:18 Cloudy 37 3 34 1 87 87 SSE 10 17 30.10 1019 10 16 0.00 0.00
5:57 am 05:57 Cloudy 37 2.8 35 1.7 93 93 S 12 19 30.06 1018 10 16 0.00 0.00
6:17 am 06:17 Cloudy 37 3 36 2 93 93 S 15 24 30.08 1019 7 11 0.00 0.00
6:40 am 06:40 Cloudy 37 3 37 3 100 100 S 17 28 30.07 1018 7 11 0.00 0.00
6:54 am 06:54 Cloudy with Mist and Fog 37 3 37 3 100 100 S 17 28 30.07 1018 5 8 0.00 0.00
6:57 am 06:57 Cloudy with Mist and Fog 38 3.3 37 2.8 97 97 S 17 28 30.04 1017 5 8 0.00 0.00
7:57 am 07:57 Cloudy with Mist and Fog 37 2.8 36 2.2 96 96 SSE 13 20 30.01 1016 4 6 0.00 0.00
8:09 am 08:09 Cloudy with Mist and Fog 37 3 36 2 93 93 SSE 10 17 30.04 1017 3 4 0.00 0.00
8:29 am 08:29 Cloudy with Mist and Fog 37 3 36 2 93 93 SSE 9 15 30.03 1017 2 3 0.00 0.00
8:45 am 08:45 Cloudy with Mist and Fog 37 3 37 3 100 100 S 12 19 30.03 1017 1 2 0.00 0.00
8:52 am 08:52 Cloudy with Fog 37 3 37 3 100 100 S 13 20 30.03 1017 1 1 0.00 0.00
8:57 am 08:57 Cloudy with Fog 37 2.8 37 2.8 100 100 S 13 20 30.01 1016 1 1 0.00 0.00
9:57 am 09:57 Cloudy with Fog 38 3.3 38 3.3 100 100 SSE 13 20 29.98 1015 1 1 0.00 0.00
10:08 am 10:08 Cloudy with Mist and Fog 37 3 37 3 100 100 SSE 12 19 30.00 1016 1 2 0.00 0.00
10:18 am 10:18 Cloudy with Mist and Fog 37 3 37 3 100 100 SSE 15 24 30.00 1016 2 3 0.00 0.00
10:31 am 10:31 Cloudy with Mist and Fog 39 4 37 3 93 93 S 12 19 29.99 1015 3 5 0.00 0.00
10:43 am 10:43 Cloudy with Mist and Fog 39 4 37 3 93 93 S 13 20 29.98 1015 2 2 0.00 0.00
10:48 am 10:48 Cloudy with Mist and Fog 39 4 37 3 93 93 SSE 14 22 29.98 1015 1 1 0.00 0.00
10:55 am 10:55 Cloudy with Fog 39 4 39 4 100 100 S 12 19 29.98 1015 0 0 0.00 0.00
10:57 am 10:57 Cloudy with Fog 39 3.9 39 3.9 100 100 S 12 19 29.95 1014 0 0 0.00 0.00
11:57 am 11:57 Cloudy with Fog 40 4.4 39 3.9 97 97 S 9 15 29.93 1014 0 0 0.00 0.00
12:41 pm 12:41 Cloudy with Mist and Fog 43 6 41 5 93 93 S 9 15 29.90 1012 1 1 0.00 0.00
12:43 pm 12:43 Cloudy with Mist and Fog 43 6 41 5 93 93 S 9 15 29.89 1012 1 2 0.00 0.00
12:57 pm 12:57 Cloudy with Mist and Fog 42 5.6 42 5.6 100 100 S 7 11 29.87 1011 2 3 0.00 0.00
1:05 pm 13:05 Cloudy with Mist and Fog 43 6 43 6 100 100 S 12 19 29.88 1012 3 4 0.00 0.00
1:13 pm 13:13 Cloudy with Mist and Fog 43 6 43 6 100 100 S 10 17 29.87 1011 4 6 0.00 0.00
1:42 pm 13:42 Cloudy with Mist and Fog 43 6 43 6 100 100 S 15 24 29.85 1011 2 3 0.00 0.00
1:57 pm 13:57 Cloudy with Mist and Fog 43 6.1 43 6.1 100 100 S 13 20 29.82 1010 1 2 0.00 0.00
2:41 pm 14:41 Cloudy with Mist and Fog 45 7 43 6 93 93 S 10 17 29.82 1010 1 1 0.00 0.00
2:57 pm 14:57 Cloudy with Mist and Fog 44 6.7 44 6.7 100 100 SSE 9 15 29.80 1009 1 2 0.00 0.00
3:12 pm 15:12 Cloudy with Mist and Fog 45 7 45 7 100 100 SSE 6 9 29.79 1009 1 1 0.00 0.00
3:21 pm 15:21 Cloudy with Fog 45 7 45 7 100 100 SSE 7 11 29.79 1009 1 1 0.00 0.00
3:51 pm 15:51 Cloudy with Fog 45 7 45 7 100 100 SSE 8 13 29.78 1008 0 0 0.00 0.00
3:57 pm 15:57 Cloudy with Fog 45 7.2 45 7.2 100 100 SSE 8 13 29.77 1008 0 0 0.00 0.00
4:57 pm 16:57 Cloudy with Fog 45 7.2 45 7.2 100 100 SE 6 9 29.74 1007 5 8 0.00 0.00
5:57 pm 17:57 Cloudy with Fog 46 7.8 46 7.8 100 100 SSE 6 9 29.72 1006 0 0 0.00 0.00
6:09 pm 18:09 Cloudy with Fog 46 8 46 8 100 100 SE 5 7 29.72 1006 0 0 0.00 0.00
6:57 pm 18:57 Cloudy with Fog 44 6.7 44 6.7 100 100 ESE 7 11 29.70 1006 0 0 0.00 0.00
7:57 pm 19:57 Cloudy with Fog 45 7.2 45 7.2 100 100 ESE 10 17 29.68 1005 0 0 0.00 0.00
8:09 pm 20:09 Cloudy with Fog 45 7 45 7 100 100 ESE 12 19 29.70 1006 0 0 0.00 0.00
8:22 pm 20:22 Cloudy with Fog 45 7 45 7 100 100 ESE 12 19 29.70 1006 1 1 0.00 0.00
8:38 pm 20:38 Cloudy with Mist and Fog 46 8 45 7 93 93 SSE 9 15 29.69 1005 1 2 0.00 0.00
8:44 pm 20:44 Cloudy with Mist and Fog 48 9 48 9 100 100 SSE 15 24 29.67 1005 2 3 0.00 0.00
8:52 pm 20:52 Cloudy 50 10 50 10 100 100 SSE 8 13 29.67 1005 10 16 0.00 0.00
8:57 pm 20:57 Cloudy 50 10 49 9.4 96 96 SE 8 13 29.67 1005 10 16 0.00 0.00
9:24 pm 21:24 Cloudy 48 9 48 9 100 100 ESE 8 13 29.66 1005 8 13 0.00 0.00
9:57 pm 21:57 Cloudy with Mist and Fog 47 8.3 46 7.8 97 97 SE 6 9 29.67 1005 3 4 0.00 0.00
10:11 pm 22:11 Cloudy with Mist and Fog 46 8 46 8 100 100 SSE 6 9 29.67 1005 2 2 0.00 0.00
10:18 pm 22:18 Cloudy with Mist and Fog 46 8 46 8 100 100 SE 6 9 29.67 1005 1 1 0.00 0.00
10:37 pm 22:37 Cloudy with Mist and Fog 46 8 46 8 100 100 SE 8 13 29.66 1004 1 1 0.00 0.00
10:44 pm 22:44 Cloudy with Mist and Fog 46 8 46 8 100 100 SE 7 11 29.66 1004 1 2 0.00 0.00
10:57 pm 22:57 Cloudy with Mist and Fog 47 8.3 46 7.8 97 97 ESE 6 9 29.66 1004 1 2 0.00 0.00
11:01 pm 23:01 Cloudy with Fog 46 8 46 8 100 100 ESE 6 9 29.66 1004 1 1 0.00 0.00
11:42 pm 23:42 Cloudy with Fog 46 8 46 8 100 100 E 8 13 29.65 1004 0 0 0.00 0.00
11:57 pm 23:57 Cloudy with Fog 46 7.8 45 7.2 96 96 ESE 8 13 29.65 1004 0 0 0.00 0.00

Powered by AerisWeather